[[{"header":{"parameterUnit":"m.s-1","parameterCategory":1,"la1":30.2991,"la2":30.254,"lo1":-89.0895,"lo2":-89.0444,"dy":0.0017,"dx":0.0017,"nx":28,"ny":28,"refTime":"2025-11-25T09:00:00:Z","depth":0,"parameterNumber":2,"parameterNumberName":"U-component_of_WINDS"},"data":[0,0,0,0,0,0,0,0,0,0,0,0,0,0,0,0,0,0,0,0,0,0,0,0,0,0,0,0,0,0,0,0,0,0,0,0,0,0,0,0,0,0,0,0,0,0,0,0,0,0,0,0,0,0,0,0,0,0,0.8532,0.8532,0,0.8522,0.8522,0.8522,0.8518,0.8518,0.8518,0.8518,0.8506,0.8506,0.8506,0,0,0,0,0,0,0,0,0,0,0,0,0,0.8546,0.8545,0.8532,0.8532,0.8532,0.8522,0.8522,0.8522,0.8518,0.8518,0.8518,0.8518,0.8506,0.8506,0.8506,0,0,0,0,0,0,0,0,0,0,0,0,0,0.8538,0.8545,0.8532,0.8528,0.8528,0.8522,0.8522,0.8522,0.8518,0.8518,0.8518,0.8518,0.8507,0.8506,0.8506,0.8503,0,0,0.8504,0.8504,0,0,0,0,0,0,0,0,0.8539,0.8538,0.8529,0.8529,0.8528,0.8521,0.8523,0.8516,0.8518,0.8521,0.8518,0.8518,0.8511,0.851,0.8509,0.8502,0.8502,0.8504,0.8504,0.8504,0.8504,0,0,0,0,0,0,0,0.8539,0.8538,0.8528,0.8529,0.8528,0.8527,0.8526,0.8522,0.8516,0.8521,0.8521,0.852,0.8511,0.8509,0.8508,0.8501,0.8504,0.8504,0.8504,0.8503,0.8493,0.8493,0,0,0,0,0,0,0.854,0.8539,0.8528,0.8528,0.8534,0.8527,0.8526,0.8523,0.8516,0.8515,0.852,0.852,0.851,0.8509,0.8508,0.8504,0.8504,0.8503,0.8503,0.8493,0.8493,0.8493,0,0,0,0,0,0,0.8541,0.854,0.8529,0.8533,0.8532,0.8527,0.8524,0.8523,0.8521,0.8515,0.8514,0.8519,0.851,0.8508,0.8504,0.8504,0.8503,0.8503,0.8493,0.8493,0.8493,0.8497,0,0,0,0,0,0,0.8541,0.854,0.8538,0.8533,0.8531,0.8526,0.8524,0.8523,0.8521,0.852,0.8514,0.8513,0.851,0.8505,0.8504,0.8503,0.8502,0.8493,0.8493,0.8493,0.8497,0.8497,0.8498,0,0,0,0,0,0.8542,0.8539,0.8538,0.8537,0.853,0.8526,0.8525,0.8521,0.8521,0.8519,0.8516,0.8513,0.8504,0.8505,0.8503,0.8503,0.8493,0.8493,0.8493,0.8497,0.8497,0.8498,0,0,0,0,0,0,0.8544,0.8539,0.8537,0.8533,0.853,0.8525,0.8523,0.8521,0.8517,0.8517,0.8513,0.8511,0.8508,0.8505,0.8505,0.85,0.8499,0.8498,0.8502,0.8502,0.8502,0.8503,0.8502,0,0,0,0,0,0.8544,0.8541,0.8537,0.8534,0.8532,0.8528,0.8526,0.8524,0.852,0.8518,0.8514,0.851,0.8507,0.8504,0.85,0.8497,0.8496,0.8496,0.8496,0.8496,0.8496,0.8495,0.8495,0.8493,0.8493,0.8493,0,0,0.8544,0.8541,0.8539,0.8534,0.8531,0.8528,0.8527,0.8523,0.8521,0.8517,0.8514,0.8511,0.8506,0.8502,0.8501,0.85,0.8496,0.8496,0.8496,0.8496,0.8495,0.8495,0.8495,0.8493,0.8493,0.8493,0,0,0.8543,0.854,0.8538,0.8535,0.8531,0.8529,0.8528,0.8523,0.8522,0.8518,0.8515,0.8513,0.8506,0.8503,0.8501,0.85,0.8498,0.8499,0.85,0.8499,0.8499,0.8499,0.8499,0.8499,0.8499,0.8499,0.8499,0,0.8543,0.8539,0.8537,0.8534,0.8532,0.8529,0.8527,0.8524,0.8519,0.8518,0.8517,0.851,0.8507,0.8503,0.8503,0.8501,0.85,0.8499,0.8499,0.8499,0.8499,0.8499,0.8499,0.8499,0.8499,0.8499,0.8499,0,0.854,0.8538,0.8536,0.8532,0.853,0.8527,0.8524,0.8523,0.8521,0.8518,0.8515,0.8511,0.8507,0.8506,0.8504,0.8502,0.8502,0.85,0.8499,0.85,0.85,0.85,0.8499,0.8499,0.8499,0.8499,0,0,0.8539,0.8535,0.8534,0.8533,0.8529,0.8527,0.8525,0.8521,0.852,0.8517,0.8515,0.851,0.8509,0.8507,0.8504,0.8503,0.8504,0.8502,0.8502,0.8503,0.8502,0.8503,0.8503,0.8502,0.8502,0.8502,0.8503,0,0.8538,0.8534,0.8532,0.8529,0.8527,0.8525,0.8523,0.852,0.8518,0.8516,0.8513,0.851,0.8509,0.8508,0.8507,0.8504,0.8503,0.8504,0.85,0.85,0.8502,0.8503,0.8504,0.8504,0.8502,0.8502,0.8502,0,0.8535,0.8533,0.853,0.8527,0.8526,0.8524,0.8522,0.852,0.8517,0.8516,0.8514,0.8512,0.8509,0.8509,0.8505,0.8506,0.8504,0.8503,0.8503,0.8502,0.8501,0.8503,0.8504,0.8504,0.8502,0.8502,0.8502,0,0.8535,0.8531,0.8529,0.8528,0.8525,0.8524,0.8522,0.852,0.8518,0.8516,0.8515,0.8512,0.8511,0.8509,0.8506,0.8506,0.8503,0.8502,0.8502,0.8502,0.8501,0.8501,0.8503,0.8501,0.8501,0.8501,0.8501,0,0.8533,0.8532,0.8529,0.8528,0.8526,0.8524,0.8523,0.8521,0.8519,0.8517,0.8515,0.8514,0.851,0.8509,0.8507,0.8505,0.8504,0.8503,0.8502,0.8503,0.8503,0.8502,0.8502,0.8501,0.8501,0.8501,0.8501,0,0.8533,0.8531,0.8529,0.8527,0.8526,0.8525,0.8523,0.8522,0.852,0.8518,0.8518,0.8515,0.8513,0.851,0.8507,0.8506,0.8504,0.8503,0.8505,0.8505,0.8505,0.8505,0.8505,0.8506,0.8503,0.8503,0.8503,0,0.8532,0.8531,0.8529,0.8528,0.8527,0.8525,0.8524,0.8522,0.8521,0.8519,0.8518,0.8516,0.8514,0.8511,0.8508,0.8506,0.8505,0.8505,0.8505,0.8506,0.8505,0.8505,0.8506,0.8505,0.8506,0.8506,0.8506,0,0.853,0.853,0.8529,0.8527,0.8526,0.8525,0.8523,0.8523,0.8521,0.852,0.8518,0.8517,0.8514,0.8512,0.851,0.8508,0.8507,0.8506,0.8506,0.8507,0.8508,0.8507,0.8506,0.8506,0.8506,0.8506,0.8506,0.8506,0.853,0.8529,0.8528,0.8526,0.8525,0.8524,0.8524,0.8522,0.8521,0.8519,0.8518,0.8517,0.8515,0.8512,0.851,0.8509,0.8508,0.8508,0.8508,0.8508,0.8509,0.8508,0.8509,0.8509,0.8509,0.8509,0.8509,0,0.8528,0.8528,0.8527,0.8525,0.8525,0.8524,0.8523,0.8522,0.8521,0.852,0.8518,0.8517,0.8515,0.8513,0.8512,0.8511,0.851,0.8511,0.8511,0.851,0.8509,0.8509,0.8511,0.8511,0.8511,0.8511,0.8511,0.8511,0.8527,0.8526,0.8526,0.8525,0.8524,0.8523,0.8522,0.8522,0.8521,0.8519,0.8518,0.8517,0.8516,0.8514,0.8513,0.8513,0.8512,0.8513,0.8512,0.8511,0.851,0.851,0.851,0.8513,0.8513,0.8513,0.8513,0.8513]},{"header":{"parameterUnit":"m.s-1","parameterCategory":1,"la1":30.2991,"la2":30.254,"lo1":-89.0895,"lo2":-89.0444,"dy":0.0017,"dx":0.0017,"nx":28,"ny":28,"refTime":"2025-11-25T09:00:00:Z","depth":0,"parameterNumber":3,"parameterNumberName":"V-component_of_WINDS"},"data":[0,0,0,0,0,0,0,0,0,0,0,0,0,0,0,0,0,0,0,0,0,0,0,0,0,0,0,0,0,0,0,0,0,0,0,0,0,0,0,0,0,0,0,0,0,0,0,0,0,0,0,0,0,0,0,0,0,0,-5.6772,-5.6772,0,-5.6788,-5.6788,-5.6788,-5.6777,-5.6777,-5.6776,-5.6776,-5.6787,-5.6787,-5.6788,0,0,0,0,0,0,0,0,0,0,0,0,0,-5.6729,-5.673,-5.6772,-5.6772,-5.6772,-5.6788,-5.6788,-5.6788,-5.6777,-5.6777,-5.6776,-5.6776,-5.6786,-5.6787,-5.6788,0,0,0,0,0,0,0,0,0,0,0,0,0,-5.6746,-5.673,-5.6772,-5.6769,-5.6769,-5.6788,-5.6788,-5.6788,-5.6777,-5.6777,-5.6776,-5.6775,-5.6786,-5.6787,-5.6788,-5.6809,0,0,-5.6792,-5.6792,0,0,0,0,0,0,0,0,-5.6745,-5.6748,-5.6769,-5.6769,-5.6769,-5.678,-5.6777,-5.6795,-5.6778,-5.6774,-5.6776,-5.6775,-5.6785,-5.6786,-5.679,-5.681,-5.681,-5.6792,-5.6792,-5.6793,-5.6793,0,0,0,0,0,0,0,-5.6744,-5.6747,-5.6778,-5.6769,-5.6769,-5.6766,-5.6767,-5.678,-5.6783,-5.6774,-5.6773,-5.6776,-5.6784,-5.6789,-5.679,-5.681,-5.6792,-5.6793,-5.6793,-5.6794,-5.6851,-5.6852,0,0,0,0,0,0,-5.6744,-5.6746,-5.6777,-5.6778,-5.6755,-5.6767,-5.6769,-5.6777,-5.6783,-5.6783,-5.6776,-5.6775,-5.6788,-5.6789,-5.6791,-5.6817,-5.6793,-5.6794,-5.6794,-5.685,-5.6851,-5.6852,0,0,0,0,0,0,-5.6743,-5.6747,-5.6777,-5.6762,-5.6766,-5.6769,-5.6778,-5.6778,-5.6782,-5.6784,-5.6784,-5.6781,-5.6787,-5.6789,-5.6806,-5.6817,-5.6794,-5.6795,-5.6849,-5.685,-5.6851,-5.687,0,0,0,0,0,0,-5.6742,-5.6746,-5.6755,-5.6762,-5.6767,-5.6792,-5.6778,-5.6778,-5.6785,-5.6784,-5.6789,-5.6789,-5.6787,-5.6804,-5.6807,-5.6819,-5.6796,-5.6848,-5.6849,-5.6851,-5.6868,-5.6872,-5.6875,0,0,0,0,0,-5.674,-5.6757,-5.6755,-5.6759,-5.6777,-5.6793,-5.6795,-5.6794,-5.6786,-5.6794,-5.6796,-5.6789,-5.6816,-5.6806,-5.6809,-5.6821,-5.6847,-5.6849,-5.6851,-5.6867,-5.6871,-5.6874,0,0,0,0,0,0,-5.6748,-5.6758,-5.6756,-5.6776,-5.6784,-5.6791,-5.6801,-5.6798,-5.6807,-5.6805,-5.6801,-5.6803,-5.6821,-5.6822,-5.6811,-5.6843,-5.683,-5.6833,-5.6841,-5.6845,-5.6848,-5.6847,-5.6797,0,0,0,0,0,-5.6753,-5.6766,-5.6773,-5.6791,-5.6795,-5.6798,-5.6804,-5.6804,-5.6811,-5.6813,-5.6816,-5.6822,-5.6832,-5.6839,-5.6848,-5.6869,-5.687,-5.6879,-5.6882,-5.6885,-5.6887,-5.69,-5.6904,-5.6858,-5.6858,-5.6858,0,0,-5.6761,-5.6768,-5.6776,-5.6793,-5.6799,-5.6812,-5.68,-5.6814,-5.6824,-5.6814,-5.6832,-5.6834,-5.6841,-5.686,-5.6869,-5.6862,-5.69,-5.6887,-5.6889,-5.689,-5.6902,-5.6907,-5.6911,-5.686,-5.6859,-5.6859,0,0,-5.6784,-5.679,-5.6807,-5.6814,-5.6825,-5.6827,-5.6831,-5.684,-5.6842,-5.686,-5.6854,-5.6865,-5.6882,-5.6888,-5.6893,-5.6922,-5.6916,-5.6925,-5.6941,-5.6954,-5.6958,-5.6961,-5.6973,-5.6977,-5.6927,-5.6927,-5.6927,0,-5.6792,-5.6813,-5.6815,-5.6831,-5.6839,-5.6834,-5.6851,-5.6857,-5.6869,-5.6875,-5.6868,-5.6892,-5.6895,-5.6917,-5.6925,-5.6929,-5.6934,-5.6924,-5.6958,-5.6961,-5.6964,-5.6975,-5.6979,-5.6928,-5.6928,-5.6928,-5.6928,0,-5.6824,-5.6839,-5.6851,-5.6867,-5.6876,-5.6892,-5.6896,-5.6905,-5.6904,-5.6907,-5.6926,-5.6931,-5.6942,-5.6947,-5.6945,-5.697,-5.6966,-5.6958,-5.6945,-5.6969,-5.698,-5.6984,-5.693,-5.693,-5.6929,-5.6929,0,0,-5.6849,-5.6869,-5.6873,-5.6882,-5.6895,-5.6906,-5.6922,-5.6936,-5.6945,-5.6954,-5.6968,-5.6984,-5.6979,-5.6985,-5.6983,-5.6995,-5.702,-5.6986,-5.6986,-5.6993,-5.7049,-5.7055,-5.706,-5.7016,-5.7017,-5.7018,-5.7049,0,-5.6874,-5.6905,-5.6908,-5.6935,-5.695,-5.6948,-5.6963,-5.6972,-5.6976,-5.6988,-5.6992,-5.7005,-5.6996,-5.7,-5.7011,-5.7014,-5.7031,-5.7012,-5.7029,-5.7029,-5.7027,-5.7065,-5.707,-5.7099,-5.7053,-5.7053,-5.7054,0,-5.6905,-5.6919,-5.6949,-5.6964,-5.697,-5.6983,-5.6998,-5.701,-5.7021,-5.7023,-5.7032,-5.703,-5.7047,-5.7034,-5.7058,-5.7045,-5.7052,-5.7055,-5.7056,-5.7057,-5.7043,-5.7068,-5.7108,-5.7113,-5.706,-5.706,-5.7059,0,-5.6922,-5.6948,-5.697,-5.6977,-5.6994,-5.7004,-5.7011,-5.7022,-5.7031,-5.7044,-5.705,-5.7063,-5.707,-5.708,-5.7082,-5.7072,-5.7106,-5.7093,-5.7108,-5.7108,-5.7115,-5.7114,-5.7158,-5.7119,-5.7119,-5.7119,-5.7119,0,-5.6949,-5.6967,-5.6979,-5.6992,-5.7013,-5.7018,-5.7038,-5.7044,-5.7055,-5.7069,-5.7067,-5.708,-5.7082,-5.7095,-5.7097,-5.7117,-5.7119,-5.7122,-5.7122,-5.7122,-5.7122,-5.7126,-5.7124,-5.712,-5.712,-5.7119,-5.7119,0,-5.697,-5.6979,-5.7003,-5.7019,-5.7024,-5.7038,-5.7051,-5.7064,-5.707,-5.7088,-5.7092,-5.71,-5.7116,-5.712,-5.7137,-5.7139,-5.7163,-5.7161,-5.716,-5.716,-5.7175,-5.7174,-5.7223,-5.723,-5.7187,-5.7187,-5.7187,0,-5.6987,-5.7002,-5.7021,-5.7032,-5.7041,-5.7057,-5.7068,-5.7074,-5.7085,-5.7101,-5.7112,-5.7129,-5.7142,-5.7168,-5.7174,-5.7189,-5.7187,-5.7204,-5.7189,-5.719,-5.7189,-5.7188,-5.719,-5.7206,-5.7207,-5.7207,-5.7207,0,-5.7015,-5.702,-5.7037,-5.7057,-5.707,-5.7085,-5.7099,-5.7107,-5.7115,-5.7127,-5.7146,-5.7157,-5.7178,-5.7194,-5.721,-5.7216,-5.7213,-5.7212,-5.7217,-5.7217,-5.7216,-5.7218,-5.7168,-5.7211,-5.721,-5.721,-5.721,-5.721,-5.7035,-5.705,-5.7067,-5.7086,-5.7099,-5.7113,-5.7127,-5.7136,-5.7152,-5.7171,-5.7173,-5.7193,-5.7206,-5.7227,-5.7235,-5.725,-5.7245,-5.7251,-5.7252,-5.7254,-5.7256,-5.7215,-5.7252,-5.7252,-5.7252,-5.7252,-5.7252,0,-5.7065,-5.7077,-5.7095,-5.7117,-5.7133,-5.7133,-5.7149,-5.7161,-5.718,-5.7194,-5.7209,-5.7231,-5.7248,-5.7257,-5.7274,-5.7285,-5.7284,-5.7289,-5.7288,-5.729,-5.7259,-5.7254,-5.729,-5.729,-5.729,-5.729,-5.729,-5.729,-5.7082,-5.7108,-5.7115,-5.7146,-5.7158,-5.718,-5.719,-5.7203,-5.7214,-5.724,-5.7256,-5.7263,-5.7275,-5.7293,-5.7309,-5.7311,-5.7318,-5.7324,-5.7325,-5.7296,-5.7292,-5.7288,-5.7284,-5.7325,-5.7325,-5.7355,-5.7356,-5.7356]}]]